Other Public Products
Issued by NWS Grand Forks, ND

Home | Current Version | Previous Version | Text Only | Print | Product List | Glossary Off
Versions: 1 2 3 4 5 6 7 8 9 10 11 12 13 14 15 16 17 18 19 20 21 22 23 24 25 26 27 28 29 30 31 32 33 34 35 36 37 38 39 40 41 42 43 44 45 46 47 48 49 50

000
FPUS83 KFGF 221531
OPUFGF
PRAIRIE TO PINES WEATHER ROUNDUP
NATIONAL WEATHER SERVICE EASTERN NORTH DAKOTA/GRAND FORKS ND
1000 AM CDT MON SEP 22 2014

 **SATELLITE DATA USED TO AUGMENT SKY COVER AT AUTOMATED STATIONS**
 *****  WEATHER ACROSS EASTERN NORTH DAKOTA  *****

CITY           SKY/WX    TMP DP  RH WIND       PRES   REMARKS
GRAND FORKS    SUNNY     61  52  72 SW7       30.13S
GRAND FORKS AF SUNNY     65  51  59 W8        30.14R
GRAND CITY NWS NOT AVBL
BUXTON           N/A     60  53  75 SW5         N/A
DEVILS LAKE    SUNNY     63  45  51 SW12      30.11S
FARGO          SUNNY     58  48  69 S9        30.18S
WAHPETON ARPT  SUNNY     59  48  67 SW5       30.21S
$$

 *****  WEATHER ACROSS CENTRAL AND WESTERN NORTH DAKOTA  *****

CITY           SKY/WX    TMP DP  RH WIND       PRES   REMARKS
JAMESTOWN      SUNNY     58  50  75 S8        30.15F
BISMARCK       SUNNY     59  48  67 SE10      30.12F
MINOT          SUNNY     62  44  51 S6        30.07F
MINOT AFB      SUNNY     61  45  55 S10       30.06F
GARRISON         N/A     57  47  69 SE6       30.09F
WILLISTON      SUNNY     58  40  51 CALM      30.03F
DICKINSON      SUNNY     57  43  59 S15       30.04S
HETTINGER      SUNNY     58  41  53 SE10      30.07F
$$

 *****  OTHER OBSERVATIONS NORTHEAST NORTH DAKOTA  *****

CITY           SKY/WX    TMP DP  RH WIND       PRES   REMARKS
WALHALLA         N/A     66  48  52 W8        30.09S
LANGDON        FAIR      63  48  59 SW12      30.12S
CAVALIER       FAIR      66  48  52 W6        30.10S
GRAFTON        FAIR      63  50  63 SW7       30.11F
CANDO          FAIR      63  46  55 SW10      30.12S
FORT TOTTEN      N/A     60  48  64 SW6       29.95S
ROLLA          FAIR      61  45  55 SW9       30.12S
RUGBY          FAIR      61  46  59 SW8       30.10F
 ***** THE ABOVE OBSERVATIONS ARE NON NWS ARE NOT QUALITY
        CONTROLLED AND MAY MIS-REPORT RAIN FOR SNOW...
$$

 *****  OTHER OBSERVATIONS SOUTHEAST NORTH DAKOTA *****

CITY           SKY/WX    TMP DP  RH WIND       PRES   REMARKS
COOPERSTOWN    NOT AVBL
VALLEY CITY    FAIR      61  50  67 SW12      30.17S
OAKES            N/A     55  50  82 S12       30.19S
GWINNER        SUNNY     59  48  67 SW9       30.21S
BUFFALO          N/A     61  48  62 SW7         N/A
WYNDMERE         N/A     61  52  72 SW5         N/A
 ***** THE ABOVE OBSERVATIONS ARE NON NWS ARE NOT QUALITY
       CONTROLLED AND MAY MIS-REPORT RAIN FOR SNOW...
$$

  *****  WEATHER ACROSS NORTHERN MINNESOTA  *****

CITY           SKY/WX    TMP DP  RH WIND       PRES   REMARKS
FLAG ISLAND    SUNNY     59  48  67 SW10      30.07S
WARROAD        SUNNY     61  52  72 SW12      30.11S
ROSEAU         SUNNY     63  52  67 SW7       30.12S
HALLOCK        SUNNY     59  50  72 S6        30.11S
THF RVR FALLS  SUNNY     59  48  67 SW6       30.15F
HALSTAD          N/A     60  46  60 SW5         N/A
FOSSTON          N/A     59  52  77 S8        30.19R
BAUDETTE       SUNNY     59  50  72 SW7       30.12S
WASKISH        SUNNY     57  55  94 CALM      30.16R
CROOKSTON      SUNNY     57  50  77 S7        30.16S
$$
  *****  WEATHER ACROSS CENTRAL AND WEST MINNESOTA  *****

CITY           SKY/WX    TMP DP  RH WIND       PRES   REMARKS
BEMIDJI        SUNNY     59  50  72 W8        30.18S
PARK RAPIDS    SUNNY     59  50  72 W8        30.20S
WADENA         SUNNY     59  52  77 W8        30.21F
DETROIT LAKES  SUNNY     59  50  72 SW7       30.21S
MOORHEAD       SUNNY     57  54  88 SW8       30.19S
FERGUS FALLS   SUNNY     59  48  67 SW7       30.22F
ELBOW LAKE     FAIR      59  51  76 SW7       30.22S
MORRIS MN      SUNNY     63  52  67 SW5       30.23S
STAPLES        SUNNY     59  50  72 SW7       30.22S
WHEATON        SUNNY     61  50  67 SW7       30.23S
$$
  *****  WEATHER ELSEWHERE ACROSS MINNESOTA  *****

CITY           SKY/WX    TMP DP  RH WIND       PRES   REMARKS
DULUTH         SUNNY     59  47  64 W9        30.20R
INTRNTL FALLS  SUNNY     55  51  86 W7        30.13S
ELY            SUNNY     57  48  72 W7        30.16S
CLOQUET        SUNNY     59  48  67 W8        30.21S
BRAINERD       SUNNY     55  49  80 W7        30.24R
HIBBING        SUNNY     57  50  77 W7        30.19S
ALEXANDRIA     SUNNY     58  51  78 SW8       30.25S
SAINT CLOUD    SUNNY     60  50  69 SW9       30.25S
MINNEAPOLIS    SUNNY     58  49  72 W6        30.28S
$$

  *****  WEATHER ACROSS SOUTH DAKOTA  *****

CITY           SKY/WX    TMP DP  RH WIND       PRES   REMARKS
SIOUX FALLS    MOSUNNY   60  49  66 SW6       30.28S
BROOKINGS      NOT AVBL
WATERTOWN      SUNNY     57  49  74 S7        30.24F
HURON          SUNNY     57  46  66 S7        30.23S
SISSETON         N/A     65  49  56 W15       30.20S
ABERDEEN       SUNNY     56  48  74 S5        30.21S
MITCHELL       SUNNY     60  48  64 S6        30.25S
PIERRE         SUNNY     61  45  55 SE14      30.14F
MOBRIDGE       SUNNY     59  50  72 SE14      30.11F
RAPID CITY     CLOUDY    59  42  53 S16       30.08F
$$

  *****  SOME WEATHER IN NEARBY STATES *****

CITY           SKY/WX    TMP DP  RH WIND       PRES   REMARKS
GLASGOW MT     SUNNY     58  37  45 E18       29.94F
GREAT FALLS MT SUNNY     65  46  50 S12       29.93S
CHEYENNE WY    CLOUDY    52  49  89 CALM      30.22F
SCOTTSBLUFF NE PTSUNNY   62  45  53 SE12      30.15S
OMAHA NE       MOSUNNY   60  50  69 S7        30.32S
DES MOINES IA  SUNNY     62  51  67 CALM      30.33R
DAVENPORT IA   SUNNY     56  44  64 CALM      30.33R
CHICAGO IL     MOSUNNY   53  41  63 VRB3      30.29R
EAU CLAIRE WI  SUNNY     57  50  77 SW7       30.25S
LA CROSSE WI   SUNNY     54  49  83 S8        30.28R
$$

  *****  SOME NATIONAL WEATHER *****

CITY           SKY/WX    TMP DP  RH WIND       PRES   REMARKS
LA GUARDIA NY  PTSUNNY   68  51  54 NW17G25   29.87R
RALEIGH NC     MOSUNNY   71  50  47 VRB7      30.07R
ATLANTA GA     PTSUNNY   70  59  68 NW10      30.08R
NEW ORLEANS LA MOSUNNY   84  69  60 N9        30.04S
OKLAHOMA CITY  MOSUNNY   70  48  45 E10       30.29S
ALBUQUERQUE NM PTSUNNY   67  57  70 E3        30.32S
SALT LAKE CITY MOSUNNY   64  54  69 S7        30.16R
LOS ANGELES CA MOSUNNY   67  64  90 CALM      29.97R
BOISE ID       PTSUNNY   64  56  75 SE7       30.05R
SEATTLE WA     CLOUDY    60  57  89 S6        30.00R
$$

*** WEATHER ACROSS MANITOBA...SASKATCHEWAN AND ONTARIO ***
                ***ONTARIO***

CITY           SKY/WX    TMP DP  RH WIND       PRES   REMARKS
GERALDTON      PTSUNNY  N/A N/A N/A W9          N/A
THUNDER BAY    MOSUNNY   61  52  72 W9        30.07F
SIOUX LOOKOUT  MOSUNNY   59  50  72 W9        30.01F
TORONTO        PTSUNNY   50  41  71 N6        30.07R
BIG TROUT LK   CLOUDY    52  48  87 W7        29.80S
PICKLE LAKE    MOSUNNY   55  48  76 W7        29.90F
DRYDEN         SUNNY     59  50  72 SW17      30.04F
KENORA         SUNNY     59  48  67 SW13      30.06
$$
                *** MANITOBA***

CITY           SKY/WX    TMP DP  RH WIND       PRES   REMARKS
BRANDON        SUNNY     57  46  67 W6        30.08
DAUPHIN        SUNNY     64  45  48 W10       30.01S
ISLAND LAKE    MOSUNNY   57  52  82 W6        29.85R
PILOT MOUND    NOT AVBL
THE PAS        MOSUNNY   63  48  59 NW7       29.89S
THOMPSON       MOSUNNY   59  50  72 NE5       29.86R
WINNIPEG       SUNNY     61  48  63 W14       30.06F
LYNN LAKE      SUNNY     55  50  82 E6        29.86S
CHURCHILL      CLOUDY    41  37  87 NE14      29.99R
GILLAM         DRIZZLE  N/A N/A N/A NE13        N/A  FOG
$$
                ***SASKATCHEWAN***

CITY           SKY/WX    TMP DP  RH WIND       PRES   REMARKS
ESTEVAN        SUNNY     59  46  63 SE6       30.03F
KINDERSLEY     SUNNY     59  45  58 S7        29.84S
LLOYDMINSTER   SUNNY     55  45  67 S15       29.76S
PRINCE ALBERT  MOSUNNY   55  48  76 E2        29.88F
REGINA         SUNNY     54  41  62 SE10      29.98F
YORKTON        SUNNY     57  43  58 S6        30.01S



USA.gov is the U.S. government's official web portal to all federal, state and local government web resources and services.